Location: Downe
(51.3167°N, 0.0500°E)
Time: 15:57:40
(UTC+00:00)

Cosmos 1766 Rocket - Pass Details

Date: 17 November 2019
Orbit: 606 x 632 km, 82.5° (Epoch: 12 December)

Event Time Altitude Azimuth Distance (km) Brightness Sun altitude
Rises 05:03:24 0° 183° (S) 2,852 7.0 -21.0°
Reaches altitude 10° 05:05:36 10° 181° (S) 1,954 6.2 -20.7°
Maximum altitude 05:09:55 72° 97° (E) 647 3.7 -20.0°
Drops below altitude 10° 05:14:16 10° 14° (NNE) 1,980 6.2 -19.3°
Sets 05:16:31 0° 13° (NNE) 2,893 7.1 -19.0°
